Regional Weather Roundup
Issued by NWS

Home | Current Version | Previous Version | Graphics & Text | Print | Product List | Glossary On
Versions: 1 2 3 4 5 6 7 8 9 10 11 12 13 14 15 16 17 18 19 20 21 22 23 24 25 26 27 28 29 30 31 32 33 34 35 36 37 38 39 40 41 42 43 44 45 46 47 48 49 50
198
ASUS45 KCYS 240710
RWRWY

WYOMING REGIONAL WEATHER ROUNDUP
NATIONAL WEATHER SERVICE CHEYENNE WY
1200 AM MST WED JAN 24 2018

NOTE:  "FAIR" INDICATES FEW OR NO CLOUDS BELOW 12,000 FEET
WITH NO SIGNIFICANT WEATHER AND/OR OBSTRUCTIONS TO VISIBILITY.

WYZ001-240800-
YELLOWSTONE NATIONAL PARK

CITY           SKY/WX    TMP DP  RH WIND       PRES   REMARKS
LK YELLOWSTONE   N/A      8   6  92 CALM      30.20F
W YELLOWSTONE  NOT AVBL

$$
WYZ002>013-054>058-071-098>099-240800-
NORTHERN WYOMING

CITY           SKY/WX    TMP DP  RH WIND       PRES   REMARKS
JACKSON        CLOUDY    12   9  87 N6        30.26R WCI   3
CODY           FAIR      33  10  38 SW15G21   30.08F WCI  23
GREYBULL       FAIR      10   6  84 CALM      30.14F
WORLAND        FAIR      10   5  80 SW7       30.14S WCI  -1
SHERIDAN       FAIR      17   9  70 CALM      30.04F
BUFFALO        FAIR      23   6  48 CALM      30.03F
GILLETTE         N/A     24  14  65 MISG      30.06F
HULETT         FAIR      28  14  54 S13       30.09F WCI  18
NEWCASTLE      FAIR      14  10  85 E5        30.16F WCI   6

$$
WYZ014>020-022>026-101>103-240800-
CENTRAL WYOMING

CITY           SKY/WX    TMP DP  RH WIND       PRES   REMARKS
BIG PINEY      FAIR       1  -2  87 CALM      30.28R
PINEDALE       FAIR      -2  -6  84 W7        30.29R WCI -16
DUBOIS         FAIR      18   5  57 NW25G31   30.12S WCI  -1
LANDER         FAIR      11   6  81 CALM      30.13F
RIVERTON       FAIR       7   1  76 S5        30.14F WCI  -2
CASPER         FAIR      23  15  71 SW23      30.14F WCI   7
DOUGLAS        FAIR       3  -1  83 CALM      30.14F

$$
WYZ021-027>030-104>119-240800-
SOUTHERN WYOMING

CITY           SKY/WX    TMP DP  RH WIND       PRES   REMARKS
EVANSTON       FAIR      17  11  77 SE5       30.26S WCI  10
FORT BRIDGER   FAIR      18  11  74 S6        30.29S WCI  10
ROCK SPRINGS   FAIR      17  11  77 SE5       30.27F WCI  10
DIXON            N/A      3  -1  86 CALM      30.34S
RAWLINS        FAIR      20  12  71 W14       30.24R WCI   7
SARATOGA       FAIR      10   3  72 SE5       30.25S WCI   2
LARAMIE        FAIR      19   8  62 SW23      30.16F WCI   2
CHEYENNE       FAIR      20  13  74 SW10      30.19F WCI   9
TORRINGTON     FAIR       5   3  91 E6        30.19F WCI  -6

$$




USA.gov is the U.S. government's official web portal to all federal, state and local government web resources and services.